TimeCST,TemperatureF,Dew PointF,Humidity,Sea Level PressureIn,VisibilityMPH,Wind Direction,Wind SpeedMPH,Gust SpeedMPH,PrecipitationIn,Events,Conditions,WindDirDegrees,DateUTC
12:15 AM,27.0,22.5,83,30.22,10.0,WNW,5.8,-,N/A,,Clear,290,2013-11-26 06:15:00
12:35 AM,25.2,21.7,87,30.22,10.0,Calm,Calm,-,N/A,,Clear,0,2013-11-26 06:35:00
12:55 AM,25.3,21.4,85,30.21,10.0,WNW,3.5,-,N/A,,Clear,290,2013-11-26 06:55:00
1:15 AM,25.7,21.7,85,30.21,10.0,Calm,Calm,-,N/A,,Clear,0,2013-11-26 07:15:00
1:35 AM,25.3,21.9,87,30.21,10.0,West,3.5,-,N/A,,Clear,260,2013-11-26 07:35:00
1:55 AM,24.3,20.8,87,30.21,10.0,Calm,Calm,-,N/A,,Clear,0,2013-11-26 07:55:00
2:15 AM,24.3,21.0,87,30.22,10.0,Calm,Calm,-,N/A,,Clear,0,2013-11-26 08:15:00
2:35 AM,23.4,19.8,86,30.22,10.0,West,4.6,-,N/A,,Clear,280,2013-11-26 08:35:00
2:55 AM,23.0,20.3,89,30.21,10.0,WNW,8.1,-,N/A,,Clear,290,2013-11-26 08:55:00
3:15 AM,23.5,20.3,87,30.21,10.0,WNW,9.2,-,N/A,,Clear,290,2013-11-26 09:15:00
3:35 AM,23.2,20.1,88,30.21,10.0,WNW,8.1,-,N/A,,Clear,290,2013-11-26 09:35:00
3:55 AM,22.6,19.8,89,30.21,10.0,WNW,6.9,-,N/A,,Clear,300,2013-11-26 09:55:00
4:15 AM,21.6,19.0,90,30.21,10.0,WNW,8.1,-,N/A,,Clear,290,2013-11-26 10:15:00
4:35 AM,21.2,18.7,90,30.21,10.0,NW,8.1,-,N/A,,Clear,310,2013-11-26 10:35:00
4:55 AM,22.1,18.9,87,30.23,10.0,NW,9.2,-,N/A,,Clear,310,2013-11-26 10:55:00
5:15 AM,22.1,19.2,89,30.24,10.0,NW,10.4,-,N/A,,Clear,320,2013-11-26 11:15:00
5:35 AM,23.2,20.1,88,30.24,10.0,NW,10.4,-,N/A,,Clear,320,2013-11-26 11:35:00
5:55 AM,23.4,20.1,87,30.25,10.0,NW,10.4,-,N/A,,Clear,320,2013-11-26 11:55:00
6:15 AM,22.6,19.6,88,30.26,10.0,NW,9.2,-,N/A,,Clear,320,2013-11-26 12:15:00
6:35 AM,22.6,19.4,87,30.27,10.0,NW,11.5,-,N/A,,Clear,320,2013-11-26 12:35:00
6:55 AM,23.0,19.9,88,30.28,10.0,NW,10.4,-,N/A,,Clear,320,2013-11-26 12:55:00
7:15 AM,22.1,19.2,89,30.29,10.0,NNW,8.1,-,N/A,,Scattered Clouds,330,2013-11-26 13:15:00
7:35 AM,23.2,20.3,89,30.30,10.0,NW,8.1,-,N/A,,Mostly Cloudy,320,2013-11-26 13:35:00
7:55 AM,25.5,21.9,86,30.30,10.0,NW,6.9,-,N/A,,Overcast,320,2013-11-26 13:55:00
8:15 AM,27.5,23.4,84,30.31,10.0,NW,9.2,-,N/A,,Overcast,320,2013-11-26 14:15:00
8:35 AM,28.2,23.7,83,30.32,10.0,NNW,11.5,-,N/A,,Overcast,330,2013-11-26 14:35:00
8:55 AM,29.3,23.7,80,30.33,10.0,North,16.1,21.9,N/A,,Overcast,350,2013-11-26 14:55:00
9:15 AM,29.5,23.9,80,30.33,10.0,North,13.8,19.6,N/A,,Overcast,350,2013-11-26 15:15:00
9:35 AM,30.2,24.4,79,30.34,10.0,North,16.1,-,N/A,,Overcast,360,2013-11-26 15:35:00
9:55 AM,31.1,22.8,71,30.35,10.0,North,21.9,27.6,N/A,,Overcast,360,2013-11-26 15:55:00
10:15 AM,32.2,20.7,63,30.35,10.0,North,21.9,28.8,N/A,,Mostly Cloudy,10,2013-11-26 16:15:00
10:35 AM,33.8,19.8,56,30.36,10.0,North,26.5,31.1,N/A,,Scattered Clouds,350,2013-11-26 16:35:00
10:55 AM,33.4,18.5,54,30.37,10.0,North,21.9,26.5,N/A,,Scattered Clouds,360,2013-11-26 16:55:00
11:15 AM,35.1,19.8,54,30.37,10.0,NNW,25.3,29.9,N/A,,Scattered Clouds,340,2013-11-26 17:15:00
11:35 AM,34.7,14.0,43,30.36,10.0,North,24.2,28.8,N/A,,Scattered Clouds,350,2013-11-26 17:35:00
11:55 AM,34.9,10.4,36,30.36,10.0,North,21.9,29.9,N/A,,Clear,350,2013-11-26 17:55:00
12:15 PM,35.2,10.6,36,30.36,10.0,North,20.7,28.8,N/A,,Clear,360,2013-11-26 18:15:00
12:35 PM,35.1,7.7,32,30.35,10.0,North,26.5,32.2,N/A,,Clear,350,2013-11-26 18:35:00
12:55 PM,34.9,6.3,30,30.34,10.0,North,21.9,28.8,N/A,,Clear,360,2013-11-26 18:55:00
1:15 PM,34.5,7.0,32,30.35,10.0,NNW,25.3,34.5,N/A,,Clear,340,2013-11-26 19:15:00
1:55 PM,34.2,7.0,32,30.34,10.0,North,20.7,26.5,N/A,,Clear,350,2013-11-26 19:55:00
2:15 PM,33.1,5.7,32,30.34,10.0,North,24.2,31.1,N/A,,Clear,350,2013-11-26 20:15:00
2:35 PM,32.2,5.9,33,30.34,10.0,NNW,28.8,34.5,N/A,,Clear,340,2013-11-26 20:35:00
2:55 PM,32.0,7.5,36,30.34,10.0,North,24.2,31.1,N/A,,Clear,360,2013-11-26 20:55:00
3:15 PM,32.0,8.2,37,30.34,10.0,NNW,26.5,-,N/A,,Clear,340,2013-11-26 21:15:00
3:35 PM,30.9,7.7,38,30.35,10.0,North,24.2,32.2,N/A,,Clear,350,2013-11-26 21:35:00
3:55 PM,30.2,7.9,39,30.36,10.0,North,23.0,28.8,N/A,,Clear,360,2013-11-26 21:55:00
4:15 PM,29.5,8.6,42,30.36,10.0,North,19.6,-,N/A,,Clear,350,2013-11-26 22:15:00
4:35 PM,28.4,8.6,43,30.37,10.0,North,16.1,-,N/A,,Clear,360,2013-11-26 22:35:00
4:55 PM,27.3,8.6,45,30.37,10.0,North,15.0,-,N/A,,Clear,350,2013-11-26 22:55:00
5:15 PM,25.3,8.4,49,30.38,10.0,North,10.4,-,N/A,,Clear,360,2013-11-26 23:15:00
5:35 PM,23.9,7.9,51,30.39,10.0,North,10.4,-,N/A,,Clear,350,2013-11-26 23:35:00
5:55 PM,21.2,7.5,56,30.39,10.0,North,6.9,-,N/A,,Clear,360,2013-11-26 23:55:00
6:15 PM,18.9,7.3,61,30.40,10.0,North,8.1,-,N/A,,Clear,350,2013-11-27 00:15:00
6:35 PM,18.3,7.5,63,30.39,10.0,North,10.4,-,N/A,,Clear,350,2013-11-27 00:35:00
6:55 PM,17.4,7.5,65,30.40,10.0,NNW,10.4,-,N/A,,Clear,340,2013-11-27 00:55:00
7:15 PM,15.8,7.5,70,30.41,10.0,North,6.9,-,N/A,,Clear,350,2013-11-27 01:15:00
7:35 PM,14.2,6.3,71,30.41,10.0,North,9.2,-,N/A,,Clear,350,2013-11-27 01:35:00
7:55 PM,13.8,7.0,74,30.42,10.0,North,6.9,-,N/A,,Clear,350,2013-11-27 01:55:00
8:15 PM,14.7,7.3,73,30.42,10.0,North,4.6,-,N/A,,Clear,350,2013-11-27 02:15:00
8:35 PM,14.9,6.8,70,30.42,10.0,North,4.6,-,N/A,,Clear,350,2013-11-27 02:35:00
8:55 PM,13.1,6.8,76,30.42,10.0,NNW,3.5,-,N/A,,Clear,340,2013-11-27 02:55:00
9:15 PM,13.1,6.4,75,30.42,10.0,Calm,Calm,-,N/A,,Clear,0,2013-11-27 03:15:00
9:35 PM,13.1,5.9,73,30.42,10.0,NW,3.5,-,N/A,,Clear,310,2013-11-27 03:35:00
9:55 PM,13.5,6.4,74,30.43,10.0,Calm,Calm,-,N/A,,Clear,0,2013-11-27 03:55:00
10:15 PM,14.7,6.6,70,30.43,10.0,Calm,Calm,-,N/A,,Clear,0,2013-11-27 04:15:00
10:35 PM,13.5,6.3,73,30.43,10.0,WNW,4.6,-,N/A,,Clear,300,2013-11-27 04:35:00
10:55 PM,14.5,7.5,74,30.43,10.0,WNW,6.9,-,N/A,,Clear,290,2013-11-27 04:55:00
11:15 PM,13.6,7.0,75,30.43,10.0,NW,5.8,-,N/A,,Clear,310,2013-11-27 05:15:00
11:35 PM,12.0,6.3,78,30.43,10.0,WNW,6.9,-,N/A,,Clear,300,2013-11-27 05:35:00
11:55 PM,11.3,5.9,79,30.42,10.0,WNW,4.6,-,N/A,,Clear,300,2013-11-27 05:55:00